Weather History for Smyrna, TN

Change the Weather History Date:

Wednesday, June 19, 2013

  Actual Average Record
Temperature  
Mean Temperature 76 °F -  
Max Temperature 90 °F 83 °F 97 °F (2012)
Min Temperature 64 °F 67 °F 54 °F (2008)
Cooling Degree Days 11    
Growing Degree Days 26 (Base 50)    
Moisture  
Dew Point 67 °F    
Average Humidity 75    
Maximum Humidity 100    
Minimum Humidity 41    
Precipitation  
Precipitation 0.00 in - - ()
Sea Level Pressure  
Sea Level Pressure 30.04 in    
Wind  
Wind Speed 1 mph (NE)    
Max Wind Speed 7 mph    
Max Gust Speed -    
Visibility 10 miles    
Events      
Averages and records for this station are not official NWS values.
T = Trace of Precipitation, MM = Missing Value Source: NWS Daily Summary

Daily Weather History Graph

Daily Weather History Graph

Search for Another Location

Airport:

Trip Planner

Search our weather history database for the weather conditions in past years. The results will help you decide how hot, cold, wet, or windy it might be!

Date:

Astronomy

Jun. 19, 2013 Rise Set
Actual Time 5:29 AM CDT 8:05 PM CDT
Civil Twilight 4:59 AM CDT 8:36 PM CDT
Nautical Twilight 4:21 AM CDT 9:13 PM CDT
Astronomical Twilight 3:39 AM CDT 9:55 PM CDT
Moon 4:02 PM CDT (6/19) 2:07 AM CDT (6/19)
Length of Visible Light 15h 37m
Length of Day
14h 36m
Waxing Gibbous, 80% of the Moon is Illuminated
Jun 19
Waxing Gibbous
Jun 23
Full
Jun 29
Last Quarter
Jul 8
New
Jul 15
First Quarter

Hourly Weather History & Observations

Time (CDT) Temp. Heat Index Dew Point Humidity Pressure Visibility Wind Dir Wind Speed Gust Speed Precip Events Conditions
12:56 AM 68.9 °F - 66.9 °F 93% 29.99 in 10.0 mi Calm Calm - N/A   Clear
1:56 AM 66.9 °F - 66.9 °F 100% 29.99 in 10.0 mi Calm Calm - N/A   Clear
2:56 AM 65.8 °F - 65.8 °F 100% 29.98 in 10.0 mi Calm Calm - N/A   Clear
3:56 AM 66.9 °F - 65.8 °F 96% 29.99 in 10.0 mi Calm Calm - N/A   Clear
4:56 AM 65.8 °F - 64.9 °F 97% 30.00 in 10.0 mi Calm Calm - N/A   Clear
5:56 AM 64.9 °F - 64.9 °F 100% 30.02 in 8.0 mi Calm Calm - N/A   Clear
6:56 AM 68.0 °F - 66.9 °F 96% 30.04 in 10.0 mi Calm Calm - N/A   Clear
7:56 AM 72.0 °F - 68.9 °F 90% 30.06 in 10.0 mi Calm Calm - N/A   Clear
8:42 AM 73.4 °F - 69.8 °F 88% 30.05 in 10.0 mi Calm Calm - 0.00 in   Partly Cloudy
8:56 AM 74.8 °F - 70.0 °F 85% 30.07 in 10.0 mi Calm Calm - 0.00 in   Partly Cloudy
9:56 AM 79.0 °F - 70.0 °F 74% 30.07 in 10.0 mi Calm Calm - N/A   Partly Cloudy
10:56 AM 82.9 °F 86.3 °F 68.9 °F 62% 30.07 in 10.0 mi Variable 3.5 mph - N/A   Partly Cloudy
11:56 AM 84.9 °F 88.8 °F 68.9 °F 59% 30.07 in 10.0 mi Variable 5.8 mph - N/A   Scattered Clouds
12:56 PM 86.0 °F 88.8 °F 66.9 °F 53% 30.06 in 10.0 mi Variable 3.5 mph - N/A   Clear
1:56 PM 88.0 °F 90.3 °F 65.8 °F 48% 30.05 in 10.0 mi ENE 5.8 mph - N/A   Clear
2:56 PM 86.9 °F 89.6 °F 66.9 °F 51% 30.04 in 10.0 mi North 3.5 mph - N/A   Partly Cloudy
3:56 PM 88.9 °F 91.0 °F 65.8 °F 46% 30.03 in 10.0 mi Calm Calm - N/A   Partly Cloudy
4:56 PM 88.0 °F 88.1 °F 61.9 °F 41% 30.03 in 10.0 mi Calm Calm - N/A   Clear
5:56 PM 88.9 °F 90.0 °F 63.9 °F 43% 30.03 in 10.0 mi ENE 6.9 mph - N/A   Clear
6:56 PM 86.9 °F 88.6 °F 64.9 °F 48% 30.04 in 10.0 mi NE 6.9 mph - N/A   Partly Cloudy
7:56 PM 82.9 °F 85.4 °F 66.9 °F 58% 30.06 in 10.0 mi NE 4.6 mph - N/A   Clear
8:56 PM 77.0 °F - 68.9 °F 76% 30.06 in 10.0 mi Calm Calm - N/A   Clear
9:56 PM 73.9 °F - 68.9 °F 84% 30.08 in 10.0 mi Calm Calm - N/A   Clear
10:56 PM 72.9 °F - 68.9 °F 87% 30.09 in 10.0 mi Calm Calm - N/A   Clear
11:56 PM 70.0 °F - 68.0 °F 93% 30.10 in 10.0 mi Calm Calm - N/A   Clear